Weather in Russkaya Borkovka

Russia / Samara Oblast     53°34′12″N   49°18′48″E
temp.,
°C
wind,
m/s
gust,
m/s
humid.,
%
clouds,
%
prec.,
mm/h
press.,
hPa
HPBL,
m
15 june, tue
tue1501:00+17nne4694100 0.0 101479
04:00+17ne2294100 0.3 101512
07:00+17n2292100 0.2 101537
10:00+19ne338470 0.2 1015155
13:00+23e4567100 0.0 1014364
16:00+23ese467085 0.1 1012433
19:00+22ene45805 0.9 101159
22:00+20e468849 0.9 101162
16 june, wed
wed1601:00+18e468460 0.0 100953
04:00+18e4676100 0.0 100855
07:00+18ese23753 0.0 100874
10:00+20sse56720 0.0 1007142
13:00+22s8107089 0.0 1008332
16:00+21ssw5778100 0.0 1008223
19:00+21s57815 0.0 1007105
22:00+19s448999 0.1 100831
17 june, thu
thu1701:00+18w239390 0.1 100820
04:00+16nnw8139324 0.3 1011304
07:00+16n8129048 0.0 1013384
10:00+18n811710 0.0 1014357
13:00+19n8125439 0.0 1016461
16:00+20n710560 0.0 1017532
19:00+19n46691 0.0 1018138
22:00+16nnw33801 0.0 102019
18 june, fri
fri1801:00+14nnw33842 0.0 102140
04:00+13n468118 0.0 1022134
07:00+15n59794 0.0 1024313
10:00+17n710595 0.0 1025509
13:00+18n79530 0.0 1025539
16:00+19n69520 0.0 1026528
19:00+18n57641 0.0 1026148
22:00+15nne33775 0.0 102823
19 june, sat
sat1901:00+14nnw11775 0.0 102818
04:00+13nnw11775 0.0 102923
07:00+15w1174100 0.0 103048
10:00+17wsw23668 0.0 1029185
13:00+20wsw34590 0.0 1028358
16:00+22w45600 0.0 1026425
19:00+21w45700 0.0 102593
22:00+19w45820 0.0 102444